Theta_e
332 336 337 338 341 337 336 336 338 337 338 335 339 342 346 342 340 341 340 342 338 339 338 337 334 333 333 332 329 323 320 314 323 321 322 321 322 322 322 321 321 321 319 318
332 333 334 333 333 333 336 337 336 338 339 336 341 339 345 343 341 340 341 340 339 339 341 338 335 334 333 333 330 326 320 313 318 323 323 323 322 322 321 321 321 321 319 318
332 332 333 333 333 336 334 336 336 336 335 339 341 341 342 343 342 340 340 340 338 338 341 340 337 335 335 334 332 326 321 317 313 323 323 323 323 323 322 321 321 321 320 319
331 331 333 333 336 335 337 335 336 338 340 343 339 340 345 344 342 341 340 340 340 339 339 341 338 336 335 334 332 327 323 318 321 315 324 323 323 322 323 321 320 320 320 319
331 332 333 334 336 335 334 334 337 339 342 342 341 342 346 345 345 343 341 340 338 338 338 339 338 336 336 334 332 328 323 323 317 316 315 323 321 322 322 321 321 319 319 319
330 332 333 333 335 334 334 337 340 340 342 349 342 341 344 344 339 335 341 340 338 338 337 338 336 335 335 333 330 327 326 324 322 322 323 323 322 319 321 320 322 319 319 319
332 331 332 334 334 337 337 341 342 346 344 347 341 339 340 335 334 333 335 339 338 336 337 338 336 335 334 333 331 328 327 325 324 322 323 323 321 322 322 323 321 321 319 319
332 333 336 335 335 335 336 337 341 341 339 340 339 339 340 337 336 335 334 335 338 337 336 338 337 336 335 333 332 329 325 324 324 323 323 323 322 321 322 322 318 320 320 319
333 336 336 335 335 334 337 339 338 340 339 339 337 339 338 338 338 337 336 335 336 337 337 339 338 336 334 333 333 330 325 325 324 323 322 322 323 321 321 320 319 319 320 319
334 337 336 336 334 333 334 335 339 339 343 343 339 339 339 339 336 337 337 337 336 337 338 337 337 336 333 334 333 331 326 325 324 323 323 322 322 322 321 321 321 320 319 319
333 337 336 336 336 337 336 337 342 340 339 341 336 338 338 341 339 339 336 337 337 337 338 337 338 336 333 333 333 331 326 324 324 323 322 322 322 322 322 321 321 320 319 319
333 337 339 335 335 335 335 338 339 341 342 340 340 338 337 340 338 334 335 335 336 337 337 338 338 336 334 333 332 331 327 324 323 323 323 323 322 322 322 322 322 321 320 319
338 340 337 335 336 336 336 337 337 338 341 342 341 340 337 339 337 336 336 334 335 335 336 336 337 336 334 333 333 330 328 325 323 322 322 322 322 323 323 323 322 322 320 319
336 344 339 336 337 335 336 337 335 339 341 340 335 335 342 340 339 334 333 337 335 336 336 336 335 335 334 334 333 331 328 325 323 322 322 321 322 323 323 323 323 321 321 320
336 336 335 334 333 334 335 336 336 336 339 340 334 333 340 339 337 335 334 338 336 336 335 335 334 334 334 333 333 332 330 325 323 321 322 322 322 323 322 323 322 322 320 320
343 339 335 336 334 335 335 334 335 333 333 331 332 334 336 334 335 336 335 336 332 333 335 335 335 335 334 333 333 332 330 326 325 323 322 322 322 322 322 322 322 321 321 321
344 343 344 339 335 335 336 335 334 333 332 332 337 337 338 338 337 334 331 330 330 332 332 333 337 336 335 335 333 332 330 328 326 325 323 322 322 322 322 322 322 322 322 321
348 348 342 339 339 336 334 335 334 334 334 334 335 336 337 339 336 334 332 330 330 331 333 335 338 337 336 335 333 332 331 329 326 325 323 322 322 321 321 321 321 321 321 320
340 345 340 341 337 336 335 336 335 334 337 339 338 337 335 337 339 334 331 332 332 332 332 335 337 336 335 334 333 332 331 328 324 323 322 321 321 321 322 322 322 322 321 316
337 346 342 339 339 339 343 337 334 332 338 337 334 335 336 335 337 335 333 334 334 333 334 335 335 335 334 333 332 331 329 324 323 322 321 321 321 321 322 321 317 316 317 318
342 339 343 337 337 336 337 334 331 344 348 337 336 337 336 340 335 334 335 335 334 333 332 333 333 333 332 331 330 328 325 324 322 321 321 320 321 321 321 319 320 320 323 325
341 342 341 337 339 344 336 334 342 339 338 338 338 338 337 337 334 333 335 335 334 332 330 329 331 333 331 329 327 326 326 326 324 323 322 322 322 322 323 323 325 326 326 327
339 343 350 342 343 339 332 333 332 340 339 339 340 338 337 334 333 333 334 335 334 332 329 329 330 332 330 328 327 327 327 327 327 326 324 328 328 329 328 329 328 326 326 326
336 336 339 343 341 342 335 335 337 338 340 340 338 335 332 331 331 330 331 334 334 333 331 329 329 330 330 328 328 327 329 330 330 327 329 330 330 329 329 327 327 327 325 324
335 336 335 339 334 338 339 336 339 341 340 337 334 332 331 331 331 331 332 333 334 333 332 330 329 329 330 329 328 330 331 329 330 330 330 330 329 327 324 320 316 317 319 318
334 341 336 341 341 343 340 335 334 337 333 331 331 330 331 330 331 331 333 335 334 334 333 333 333 332 330 329 331 326 325 325 325 325 322 319 317 316 314 313 316 315 316 317
Wind_Speed
18 10 10 13 24 17 15 17 15 10 4 4 8 10 20 22 17 13 12 19 12 11 19 15 11 6 2 0 5 8 9 8 7 3 4 4 4 6 5 9 10 12 14 16
14 7 5 9 8 11 18 6 8 7 0 4 6 4 20 23 18 15 13 11 11 16 17 14 10 8 5 5 2 7 8 8 4 2 7 5 9 4 8 10 8 14 15 14
11 14 9 11 10 12 7 13 16 10 7 8 11 16 12 16 18 16 15 16 11 18 19 18 14 11 8 6 4 7 7 7 8 7 4 6 5 8 7 7 11 9 13 14
8 16 5 12 13 8 0 8 13 16 17 10 22 5 13 12 10 15 16 16 18 18 17 17 16 13 9 6 7 6 7 4 7 2 3 9 6 5 8 5 10 10 12 10
14 11 6 13 1 11 12 10 12 18 11 6 16 8 10 11 13 16 19 16 15 14 19 20 18 17 13 12 5 9 8 5 5 3 2 4 1 1 4 9 6 8 9 13
14 6 7 13 9 8 9 6 5 6 3 5 18 12 6 10 4 3 22 18 16 13 15 16 19 18 13 11 9 8 5 6 4 2 3 4 3 5 5 9 9 6 7 11
16 14 7 4 15 9 19 17 2 3 5 4 2 9 9 11 9 3 1 20 17 12 15 18 17 18 17 13 11 8 7 5 5 2 3 4 3 7 7 5 6 5 7 10
10 5 11 7 15 9 7 1 6 8 11 7 6 4 4 4 6 4 2 1 21 18 14 19 18 18 16 16 13 11 11 6 7 4 5 4 5 0 2 8 7 1 6 10
15 5 13 11 14 5 2 2 9 11 14 13 2 7 6 14 8 8 3 2 8 18 12 16 21 19 15 17 13 13 9 7 10 7 7 5 5 7 4 9 8 8 6 9
14 3 14 16 14 14 12 9 11 5 3 9 14 8 5 13 9 5 6 5 5 11 9 8 26 20 16 15 13 12 11 10 10 7 7 5 7 6 7 7 11 12 11 10
10 7 2 6 5 12 11 14 6 2 2 5 7 9 6 17 11 14 8 7 9 11 12 15 19 20 18 15 13 14 11 11 10 10 9 10 10 8 9 9 8 14 14 11
9 4 11 14 4 8 4 13 7 2 6 12 14 1 7 2 13 14 25 3 7 9 10 14 20 20 19 16 15 16 12 9 8 9 9 10 11 10 11 11 11 12 13 13
7 5 8 14 16 10 6 17 4 6 6 11 12 3 7 10 24 23 33 42 4 4 4 5 16 18 17 16 15 13 12 8 8 9 10 11 13 12 12 14 13 14 12 13
4 6 9 12 16 14 7 13 9 8 4 18 10 13 14 14 13 28 18 23 8 8 8 8 8 16 17 17 17 14 10 7 8 9 9 9 11 12 15 16 15 16 13 14
1 6 11 16 19 21 10 19 18 16 16 14 13 16 16 12 12 17 26 17 8 5 5 6 8 8 15 16 14 12 10 9 9 9 9 9 11 13 13 14 15 16 14 14
6 6 11 15 17 10 11 19 21 7 10 13 14 13 13 10 5 8 37 5 21 28 21 3 6 10 11 13 11 11 10 10 9 9 10 9 10 11 13 14 16 16 14 16
7 6 9 14 6 11 9 15 10 9 10 10 10 14 16 14 21 21 21 19 18 18 17 18 6 5 11 7 11 9 9 8 10 9 9 10 11 12 14 15 16 17 18 19
6 6 8 11 14 14 5 7 10 9 11 13 9 12 14 19 18 17 18 15 15 14 14 14 8 8 5 7 4 6 7 8 8 9 9 11 12 13 14 16 19 19 21 23
9 7 9 10 9 8 18 7 3 2 3 11 10 11 13 12 10 12 13 11 9 10 10 8 8 5 4 4 6 5 5 6 7 9 10 10 12 14 15 17 20 24 25 25
5 6 8 11 14 16 23 18 36 47 3 5 6 8 11 11 5 7 8 6 7 7 7 7 6 4 5 6 5 4 3 6 8 9 10 11 12 15 19 21 22 24 26 29
3 3 16 7 11 9 11 9 11 4 6 5 4 7 8 8 9 8 5 5 6 6 7 6 6 6 7 6 3 0 3 6 8 10 11 11 13 17 22 22 26 29 32 36
8 7 3 4 6 9 7 5 8 13 16 2 5 8 6 8 6 3 5 3 2 2 3 4 5 4 5 4 3 1 3 7 8 10 12 15 17 20 23 27 31 31 35 38
12 10 11 6 4 16 12 27 14 10 5 3 6 6 6 6 7 1 4 5 4 2 0 1 2 2 2 2 1 1 4 7 10 14 15 18 20 22 25 29 32 34 34 33
16 9 3 14 9 18 21 17 19 11 5 7 6 7 9 10 9 11 14 6 4 3 2 2 2 1 1 1 4 13 12 9 14 20 16 19 23 24 26 26 27 28 28 29
6 11 8 9 12 16 29 29 40 14 7 10 8 9 12 13 14 14 16 9 3 1 1 1 3 3 3 3 13 7 10 13 16 16 17 18 19 22 25 24 26 27 26 28
20 4 3 4 8 8 12 5 26 13 11 12 12 11 9 9 8 9 10 8 9 8 6 6 3 3 8 9 4 10 11 11 12 14 18 19 20 22 24 24 26 26 26 28
Wind_Direction
236 184 254 166 208 257 47 46 357 324 98 286 274 154 168 181 203 204 178 183 196 196 162 163 159 175 244 132 345 6 359 43 73 12 40 39 45 15 24 353 357 353 8 360
278 269 265 345 326 335 20 54 224 250 238 296 251 221 161 169 192 201 194 222 203 168 157 163 169 178 199 244 326 335 3 13 85 46 3 30 29 35 21 357 355 353 358 4
303 283 32 306 307 15 324 323 321 352 326 213 263 257 166 162 181 199 205 195 223 173 171 173 184 193 203 225 248 302 345 13 27 80 346 75 39 10 354 15 325 2 348 360
264 287 356 289 41 152 16 258 304 354 343 30 339 327 156 161 181 193 207 207 199 184 188 181 178 183 183 221 241 276 318 46 336 89 31 55 38 1 360 355 342 5 340 352
287 302 341 334 187 315 327 2 53 4 2 68 288 293 124 154 197 205 202 208 207 185 184 177 188 182 180 198 223 228 311 342 342 9 65 95 256 237 346 339 17 358 354 339
273 294 294 305 315 303 326 79 74 300 304 61 256 240 134 200 148 308 186 190 201 180 198 173 183 164 161 181 192 226 280 303 328 349 322 351 359 353 54 14 8 342 353 333
256 258 240 324 286 36 306 345 336 268 224 188 297 289 84 60 53 51 119 174 176 174 180 169 162 163 161 191 185 218 238 265 284 274 258 289 331 29 25 326 290 1 337 333
276 249 309 301 272 306 40 311 27 301 336 328 75 87 118 70 82 65 8 240 172 178 194 173 176 173 171 187 188 194 241 247 253 239 243 272 310 39 320 280 313 342 340 314
275 31 315 277 262 290 315 275 297 311 328 303 220 156 339 318 144 110 147 187 182 180 191 163 176 174 171 183 190 200 207 227 234 234 257 279 291 314 312 311 339 313 305 307
263 209 218 272 316 264 257 5 334 77 31 341 319 44 180 266 63 95 146 177 211 161 171 209 167 168 167 180 197 202 214 223 246 249 256 274 257 302 293 310 312 318 320 310
251 271 244 162 223 3 32 287 57 73 281 249 315 33 36 18 76 16 335 179 186 191 210 196 162 167 165 178 193 211 203 209 237 244 237 240 263 262 281 290 299 305 319 315
242 289 288 289 216 206 220 336 36 273 313 318 303 328 323 102 73 129 266 237 210 215 204 165 168 171 171 182 194 219 203 216 239 249 253 256 265 270 273 283 289 292 306 310
349 260 270 273 269 74 294 287 198 131 84 246 251 350 247 76 42 2 338 318 218 202 178 168 160 169 185 186 200 216 230 219 221 242 254 268 275 283 286 287 291 289 294 301
5 300 294 283 303 290 223 261 250 214 192 261 322 323 75 82 93 126 225 276 269 168 167 205 197 186 192 195 204 208 229 226 245 250 246 251 263 269 277 279 280 290 299 298
245 279 279 281 281 288 195 258 234 234 234 257 335 341 120 150 182 222 240 300 213 132 149 177 196 208 190 196 194 210 223 233 241 252 255 262 272 286 287 292 290 293 289 296
168 273 287 288 287 351 332 320 299 351 357 335 342 333 27 172 26 40 75 31 358 16 12 15 217 202 183 193 186 213 220 238 257 255 263 270 277 277 280 284 293 302 306 302
231 260 285 291 340 295 261 244 274 15 354 341 335 2 32 33 61 57 64 45 34 25 5 1 16 163 174 178 196 202 231 239 250 264 276 282 284 286 285 288 290 293 295 296
296 249 275 283 288 283 294 91 82 46 335 354 349 354 8 90 82 59 28 30 25 23 16 9 49 96 128 152 188 207 226 251 257 274 281 285 284 284 285 284 286 291 294 299
209 258 277 274 271 281 292 43 268 174 344 46 30 1 352 13 91 55 61 49 37 43 41 37 55 94 159 154 183 202 228 261 273 281 284 287 286 289 288 287 293 293 294 301
236 194 263 270 291 302 0 45 36 336 206 26 333 11 12 345 33 78 79 82 77 72 80 95 114 126 141 149 178 198 259 280 279 285 290 287 285 282 286 288 296 306 302 302
58 316 256 260 271 257 36 118 123 52 328 186 43 27 28 55 76 119 108 91 106 107 105 118 126 140 150 156 149 265 307 309 301 292 290 288 286 287 292 307 314 307 309 309
238 254 200 111 246 254 7 329 115 236 268 49 60 74 19 104 125 153 120 119 104 104 103 127 143 156 148 141 132 92 327 314 307 305 307 300 297 297 297 299 304 303 303 304
334 27 334 315 269 204 231 230 226 240 264 34 72 47 43 26 10 179 186 170 191 192 355 266 175 163 133 126 147 320 323 309 312 299 304 313 311 304 300 299 302 306 311 310
249 64 357 332 113 182 198 216 224 171 146 108 94 70 54 39 17 359 360 187 184 198 159 269 319 258 324 11 62 335 313 300 296 311 318 312 310 316 311 316 320 319 323 326
261 141 182 232 287 314 49 55 341 85 134 121 102 74 47 34 19 11 9 19 102 118 182 135 354 10 35 73 326 358 314 314 332 330 334 332 328 326 333 333 332 333 329 328
311 17 303 341 10 29 149 222 197 119 95 84 72 61 60 59 51 36 46 34 41 73 91 111 84 29 7 9 19 349 340 331 332 331 333 336 331 330 331 339 339 337 345 345